Location: ??????
(41.3164°N, 22.6615°E)
Time: 11:58:08
(UTC+00:00)

CAS-4A - Pass Details

Date: 11 July 2022
Orbit: 521 x 537 km, 43.0° (Epoch: 13 August)

Event Time Altitude Azimuth Distance (km) Brightness Sun altitude
Rises 18:41:32 0° 209° (SSW) 2,635 ? -6.8°
Reaches altitude 10° 18:44:13 10° 191° (S) 1,748 ? -7.2°
Maximum altitude 18:47:06 19° 144° (SE) 1,273 ? -7.6°
Drops below altitude 10° 18:49:59 10° 98° (E) 1,751 ? -8.0°
Enters shadow 18:52:03 - 84° (E) 2,419 ? -8.3°
